Погода в Белом Озере

Беларусь     51°49′15″N   23°42′09″E
темп.,
°C
ветер,
м/с
пор.,
м/с
влажн.,
%
обл.,
%
осадки,
мм/ч
давл.,
гПа
погр.,
м
16 апреля, пт
пт1600:00+5сз3698100 0.1 1015286
03:00+4ссз4697100 0.7 1013362
06:00+4сз4898100 1.1 1012424
09:00+5ссз3696100 6.8 1012584
12:00+5ссз3697100 0.5 1012363
15:00+8всв139080 0.9 1012412
18:00+10юв227856 0.5 1012434
21:00+7ююз239699 3.1 1013127
17 апреля, сб
сб1700:00+7зсз1198100 0.1 101354
03:00+7вюв239781 0.3 1014103
06:00+6юв2495100 0.0 1015130
09:00+6вюв2393100 0.0 1017220
12:00+9юв347893 0.1 1018785
15:00+10юв336860 0.2 10181012
18:00+10ю3367100 0.1 1019676
21:00+8юз2479100 0.1 1020183
18 апреля, вс
вс1800:00+6юз24875 0.0 1020151
03:00+4з229412 0.0 102029
06:00+3зсз22952 0.0 102024
09:00+7зсз22805 0.0 1020268
12:00+12ссз226563 0.0 1019924
15:00+14ссв236080 0.1 10181105
18:00+13св467095 0.4 1017715
21:00+10всв4981100 0.6 1019479
19 апреля, пн
пн1900:00+7всв399227 0.0 1019237
03:00+5всв498946 0.0 1019204
06:00+4в498942 0.0 1019220
09:00+7в47755 0.0 1019409
12:00+12в565899 0.1 10171607
15:00+11всв3663100 0.1 1016857
18:00+10всв4666100 0.1 1015657
21:00+8всв5977100 0.1 1015586
20 апреля, вт
вт2000:00+6всв39865 0.1 1015311
03:00+6ссв3679100 0.1 1013218
06:00+6с4981100 0.0 1012378
09:00+7ссв4886100 0.2 1011523
12:00+10с686072 0.3 10101494
15:00+11с685793 0.5 10081513
18:00+10ссз5865100 0.3 10081242
21:00+7ссз4879100 0.4 1008367